Back to catalog

STARLINK-36106

AliveCommunicationsVLEO
NORAD 67018·PAYLOAD·🇺🇸 United States

Launched Dec 10, 2025 from Vandenberg Space Force Base

Loading…

Next Passes (next 24 hours)

TLE

FreshSource: CelesTrak SupGP

Epoch: Sep 14, 2026, 21:45 UTC

1 67018C 25293R   26257.90673611 -.00039555  00000+0 -33152-2 0  2579
2 67018  70.0021 337.2448 0003509 270.9344  97.3443 14.98345329    10

Track STARLINK-36106 in real time with AllMySat

Download on the App Store